Weather in Troitskoye

Russia / Oryol Oblast     52°39′02″N   37°12′45″E
temp.,
°C
wind,
m/s
gust,
m/s
humid.,
%
clouds,
%
prec.,
mm/h
press.,
hPa
HPBL,
m
21 april, wed
wed2100:00+3ne5893100 0.0 1006510
03:00+2n3599100 0.3 1005322
06:00+2nw3599100 0.2 1005306
09:00+3wnw4589100 0.2 1007556
12:00+5w5681100 0.1 1009811
15:00+6wsw4672100 0.1 10111112
18:00+6wsw3677100 0.0 1012715
21:00+5wsw3689100 0.1 1014684
22 april, thu
thu2200:00+4wsw3690100 0.1 1015569
03:00+4ssw478778 0.1 1017349
06:00+3ssw4109510 0.0 1017231
09:00+8ssw697865 0.0 1018544
12:00+12ssw686249 0.0 10181206
15:00+14sw685663 0.9 10171594
18:00+13ssw696398 1.1 1017759
21:00+10s5117976 1.4 1018270
23 april, fri
fri2300:00+8s4118317 0.0 1018214
03:00+7s4138289 0.0 1018239
06:00+8s5138198 0.0 1017269
09:00+12s7126657 0.0 1017753
12:00+16s8104684 0.0 10152469
15:00+14s7105784 0.4 10141613
18:00+13s6116490 1.0 1013879
21:00+10ssw3783100 2.6 1012285
24 april, sat
sat2400:00+9s71485100 0.4 10101013
03:00+6w3692100 2.9 1009425
06:00+3wnw5999100 6.2 1010481
09:00+3wnw5998100 9.8 1010543
12:00+6wnw5773100 0.9 10111074
15:00+8w6849100 1.6 10112245
18:00+8w585312 0.2 1011574
21:00+5wnw3575100 0.6 101298
25 april, sun
sun2500:00+3w368498 0.1 1012142
03:00+2w37885 0.1 1013181
06:00+1wsw38875 0.0 1013254
09:00+5wsw68675 0.0 10131082
12:00+6wsw6859100 0.8 10131497
15:00+7wsw695186 1.8 10132014
18:00+6wsw71063100 0.5 10131300
21:00+3sw5107145 0.8 1014366